[[{"header":{"parameterUnit":"m.s-1","parameterCategory":1,"la1":30.2991,"la2":30.254,"lo1":-89.0895,"lo2":-89.0444,"dy":0.0017,"dx":0.0017,"nx":28,"ny":28,"refTime":"2025-04-12T09:00:00:Z","depth":0,"parameterNumber":2,"parameterNumberName":"U-component_of_WINDS"},"data":[0,0,0,0,0,0,0,0,0,0,0,0,0,0,0,0,0,0,0,0,0,0,0,0,0,0,0,0,0,0,0,0,0,0,0,0,0,0,0,0,0,0,0,0,0,0,0,0,0,0,0,0,0,0,0,0,0,0,-1.258,-1.258,0,-1.2525,-1.2525,-1.2524,-1.2456,-1.2455,-1.2453,-1.2452,-1.2397,-1.2396,-1.2396,0,0,0,0,0,0,0,0,0,0,0,0,0,-1.2626,-1.2626,-1.258,-1.258,-1.2579,-1.2525,-1.2525,-1.2524,-1.2456,-1.2454,-1.2453,-1.2452,-1.2397,-1.2396,-1.2396,0,0,0,0,0,0,0,0,0,0,0,0,0,-1.2592,-1.2626,-1.258,-1.2538,-1.2534,-1.2526,-1.2525,-1.2524,-1.2456,-1.2454,-1.2453,-1.2451,-1.2397,-1.2396,-1.2396,-1.2424,0,0,-1.2393,-1.2393,0,0,0,0,0,0,0,0,-1.2594,-1.2591,-1.2545,-1.2541,-1.2537,-1.2496,-1.252,-1.249,-1.2456,-1.2486,-1.2452,-1.245,-1.2431,-1.2427,-1.2421,-1.2421,-1.2419,-1.2393,-1.2393,-1.2393,-1.2392,0,0,0,0,0,0,0,-1.2597,-1.2593,-1.2559,-1.2545,-1.2539,-1.2522,-1.2516,-1.2514,-1.2468,-1.2483,-1.2478,-1.2472,-1.2428,-1.2421,-1.2419,-1.2418,-1.2393,-1.2393,-1.2392,-1.2392,-1.2439,-1.2441,0,0,0,0,0,0,-1.2605,-1.2595,-1.256,-1.2557,-1.2562,-1.2523,-1.2515,-1.251,-1.2468,-1.246,-1.2474,-1.2469,-1.2423,-1.242,-1.2417,-1.2447,-1.2393,-1.2392,-1.2392,-1.2438,-1.244,-1.2441,0,0,0,0,0,0,-1.2607,-1.2603,-1.2562,-1.2575,-1.2568,-1.2524,-1.2519,-1.251,-1.2503,-1.2461,-1.2452,-1.2476,-1.2422,-1.2418,-1.2423,-1.2444,-1.2392,-1.2391,-1.2436,-1.2438,-1.2441,-1.2509,0,0,0,0,0,0,-1.2608,-1.2604,-1.2614,-1.2575,-1.2568,-1.257,-1.252,-1.251,-1.2502,-1.2496,-1.246,-1.2453,-1.242,-1.2424,-1.2422,-1.2443,-1.239,-1.2433,-1.2437,-1.244,-1.2505,-1.2514,-1.2521,0,0,0,0,0,-1.261,-1.2636,-1.2615,-1.2611,-1.258,-1.2571,-1.2567,-1.2529,-1.2504,-1.2514,-1.2487,-1.2454,-1.2442,-1.2425,-1.2422,-1.2443,-1.2432,-1.2436,-1.244,-1.2501,-1.2512,-1.2521,0,0,0,0,0,0,-1.2679,-1.263,-1.2606,-1.262,-1.26,-1.256,-1.2571,-1.2542,-1.2528,-1.2523,-1.2476,-1.2469,-1.248,-1.2461,-1.2443,-1.2468,-1.2432,-1.2436,-1.248,-1.249,-1.2498,-1.2503,-1.239,0,0,0,0,0,-1.2695,-1.2692,-1.265,-1.2666,-1.2657,-1.2616,-1.2611,-1.2583,-1.2561,-1.2552,-1.2525,-1.2505,-1.2496,-1.2492,-1.2482,-1.2501,-1.2493,-1.2514,-1.2522,-1.2529,-1.2533,-1.2543,-1.2552,-1.2454,-1.2454,-1.2454,0,0,-1.273,-1.2703,-1.2704,-1.2679,-1.266,-1.2658,-1.2609,-1.2609,-1.2608,-1.2552,-1.2555,-1.2535,-1.2509,-1.2522,-1.2526,-1.2507,-1.2558,-1.2534,-1.254,-1.254,-1.2547,-1.2557,-1.2565,-1.2456,-1.2456,-1.2456,0,0,-1.2792,-1.2771,-1.2782,-1.2764,-1.2737,-1.2709,-1.2712,-1.2675,-1.266,-1.2662,-1.2621,-1.2617,-1.2604,-1.2587,-1.2577,-1.2632,-1.2602,-1.263,-1.2674,-1.2684,-1.2692,-1.2698,-1.2719,-1.2727,-1.2634,-1.2634,-1.2634,0,-1.2838,-1.2834,-1.2792,-1.2794,-1.2785,-1.2734,-1.2746,-1.273,-1.2701,-1.2696,-1.2674,-1.2656,-1.2635,-1.2644,-1.2657,-1.265,-1.2652,-1.2635,-1.2694,-1.27,-1.2706,-1.2725,-1.2732,-1.2638,-1.2638,-1.2637,-1.2637,0,-1.2893,-1.289,-1.2902,-1.2875,-1.2867,-1.2874,-1.2834,-1.283,-1.2803,-1.2778,-1.2781,-1.2754,-1.2737,-1.2737,-1.2711,-1.2742,-1.2731,-1.2702,-1.2665,-1.2719,-1.2737,-1.2743,-1.2643,-1.2642,-1.2641,-1.264,0,0,-1.2997,-1.2947,-1.2952,-1.2939,-1.2904,-1.2902,-1.2906,-1.289,-1.2888,-1.2869,-1.2873,-1.2862,-1.2836,-1.2824,-1.2795,-1.2804,-1.285,-1.2774,-1.2773,-1.279,-1.2883,-1.2905,-1.2915,-1.2829,-1.283,-1.2831,-1.2885,0,-1.3054,-1.3059,-1.3021,-1.3037,-1.3034,-1.2985,-1.2989,-1.2969,-1.2945,-1.2939,-1.2913,-1.2907,-1.2872,-1.2864,-1.287,-1.2843,-1.2868,-1.2838,-1.2832,-1.2832,-1.2841,-1.2923,-1.2947,-1.3,-1.2892,-1.2893,-1.2894,0,-1.3121,-1.3106,-1.3121,-1.3086,-1.3083,-1.3087,-1.307,-1.3064,-1.304,-1.3022,-1.3009,-1.2976,-1.2978,-1.2942,-1.2944,-1.2925,-1.292,-1.2906,-1.2907,-1.2906,-1.2867,-1.2925,-1.3016,-1.3024,-1.2904,-1.2903,-1.2902,0,-1.3197,-1.318,-1.3187,-1.3177,-1.3136,-1.314,-1.3123,-1.3097,-1.309,-1.3074,-1.3069,-1.3054,-1.3046,-1.3035,-1.2998,-1.2975,-1.3005,-1.2966,-1.2991,-1.2992,-1.3,-1.3001,-1.3092,-1.2995,-1.2995,-1.2995,-1.2995,0,-1.3265,-1.3276,-1.3221,-1.3226,-1.3237,-1.3193,-1.3206,-1.3184,-1.3161,-1.316,-1.3116,-1.3117,-1.3068,-1.3063,-1.3034,-1.3041,-1.3038,-1.3023,-1.3016,-1.3028,-1.303,-1.3025,-1.3021,-1.2997,-1.2997,-1.2996,-1.2996,0,-1.3352,-1.3316,-1.332,-1.328,-1.3271,-1.3281,-1.3247,-1.325,-1.3223,-1.3223,-1.322,-1.3178,-1.317,-1.3132,-1.3115,-1.3095,-1.3112,-1.3097,-1.3121,-1.3116,-1.3144,-1.3142,-1.3236,-1.3247,-1.3142,-1.3143,-1.3144,0,-1.3399,-1.3406,-1.3367,-1.3364,-1.3349,-1.3344,-1.3336,-1.3293,-1.3287,-1.3259,-1.3265,-1.3253,-1.3242,-1.3231,-1.3199,-1.3185,-1.317,-1.3204,-1.3168,-1.318,-1.3171,-1.3172,-1.3173,-1.3212,-1.3213,-1.3214,-1.3215,0,-1.3485,-1.3466,-1.3457,-1.3441,-1.3433,-1.3419,-1.3402,-1.3401,-1.3353,-1.3349,-1.334,-1.3331,-1.3313,-1.3302,-1.3283,-1.3265,-1.3233,-1.3227,-1.3232,-1.3245,-1.3259,-1.3253,-1.3143,-1.3225,-1.3224,-1.3223,-1.3223,-1.3222,-1.3554,-1.3559,-1.3532,-1.3523,-1.3506,-1.3491,-1.3491,-1.3464,-1.3456,-1.3438,-1.3413,-1.3408,-1.3382,-1.3354,-1.3339,-1.3334,-1.3315,-1.3323,-1.3325,-1.3327,-1.3334,-1.3259,-1.333,-1.333,-1.3329,-1.3329,-1.3329,0,-1.3639,-1.3619,-1.3611,-1.3589,-1.3582,-1.3551,-1.353,-1.3527,-1.3522,-1.3501,-1.3491,-1.3481,-1.347,-1.3437,-1.3422,-1.3425,-1.341,-1.3423,-1.3423,-1.3419,-1.3351,-1.3348,-1.3435,-1.3435,-1.3435,-1.3435,-1.3435,-1.3435,-1.3683,-1.3689,-1.3668,-1.3665,-1.3645,-1.3639,-1.363,-1.3616,-1.3599,-1.359,-1.3581,-1.3559,-1.3533,-1.3517,-1.3505,-1.3496,-1.3493,-1.3511,-1.3497,-1.3434,-1.3424,-1.3414,-1.3412,-1.3511,-1.3511,-1.3566,-1.3567,-1.3567]},{"header":{"parameterUnit":"m.s-1","parameterCategory":1,"la1":30.2991,"la2":30.254,"lo1":-89.0895,"lo2":-89.0444,"dy":0.0017,"dx":0.0017,"nx":28,"ny":28,"refTime":"2025-04-12T09:00:00:Z","depth":0,"parameterNumber":3,"parameterNumberName":"V-component_of_WINDS"},"data":[0,0,0,0,0,0,0,0,0,0,0,0,0,0,0,0,0,0,0,0,0,0,0,0,0,0,0,0,0,0,0,0,0,0,0,0,0,0,0,0,0,0,0,0,0,0,0,0,0,0,0,0,0,0,0,0,0,0,-3.309,-3.309,0,-3.313,-3.313,-3.3131,-3.3105,-3.3104,-3.3103,-3.3102,-3.3139,-3.3142,-3.3144,0,0,0,0,0,0,0,0,0,0,0,0,0,-3.2989,-3.2991,-3.309,-3.309,-3.3091,-3.313,-3.313,-3.3131,-3.3106,-3.3104,-3.3103,-3.3101,-3.3139,-3.3141,-3.3144,0,0,0,0,0,0,0,0,0,0,0,0,0,-3.3031,-3.2991,-3.309,-3.3083,-3.3083,-3.3129,-3.313,-3.3131,-3.3106,-3.3104,-3.3102,-3.3101,-3.3138,-3.3141,-3.3144,-3.3199,0,0,-3.3154,-3.3155,0,0,0,0,0,0,0,0,-3.3029,-3.3035,-3.3083,-3.3084,-3.3083,-3.3111,-3.3108,-3.3153,-3.3106,-3.3097,-3.3102,-3.31,-3.3131,-3.3135,-3.3146,-3.32,-3.3202,-3.3154,-3.3156,-3.3157,-3.3158,0,0,0,0,0,0,0,-3.3026,-3.3033,-3.3105,-3.3084,-3.3084,-3.3077,-3.3081,-3.3117,-3.3123,-3.3098,-3.3096,-3.3101,-3.3131,-3.3143,-3.3147,-3.3202,-3.3154,-3.3157,-3.3159,-3.316,-3.3304,-3.3306,0,0,0,0,0,0,-3.3024,-3.3031,-3.3104,-3.3107,-3.3051,-3.308,-3.3085,-3.3104,-3.3123,-3.3124,-3.3103,-3.31,-3.3139,-3.3143,-3.3148,-3.3214,-3.3157,-3.316,-3.3162,-3.3302,-3.3305,-3.3307,0,0,0,0,0,0,-3.3022,-3.3031,-3.3102,-3.3068,-3.3077,-3.3084,-3.3105,-3.3105,-3.3118,-3.3127,-3.3127,-3.3114,-3.3137,-3.3143,-3.3187,-3.3215,-3.3162,-3.3164,-3.33,-3.3303,-3.3306,-3.3346,0,0,0,0,0,0,-3.3019,-3.303,-3.3051,-3.3069,-3.3079,-3.3142,-3.3107,-3.3107,-3.3124,-3.312,-3.3138,-3.3139,-3.3136,-3.3182,-3.319,-3.3218,-3.3167,-3.3298,-3.3301,-3.3305,-3.3342,-3.335,-3.3356,0,0,0,0,0,-3.3015,-3.306,-3.3053,-3.3062,-3.3106,-3.3143,-3.3149,-3.3146,-3.3126,-3.3147,-3.3153,-3.3138,-3.321,-3.3187,-3.3195,-3.3225,-3.3296,-3.33,-3.3305,-3.3339,-3.3348,-3.3356,0,0,0,0,0,0,-3.3044,-3.3062,-3.3054,-3.3106,-3.3124,-3.3139,-3.3166,-3.3156,-3.3178,-3.3174,-3.3169,-3.3173,-3.3218,-3.3225,-3.3199,-3.3279,-3.325,-3.3256,-3.3273,-3.3282,-3.3289,-3.3287,-3.3169,0,0,0,0,0,-3.3057,-3.3087,-3.31,-3.3145,-3.3154,-3.3159,-3.3175,-3.3171,-3.3189,-3.3195,-3.3204,-3.3221,-3.3247,-3.3265,-3.3289,-3.3343,-3.3346,-3.3367,-3.3374,-3.338,-3.3386,-3.3416,-3.3425,-3.3321,-3.3321,-3.3321,0,0,-3.3083,-3.3096,-3.3115,-3.3151,-3.3164,-3.3195,-3.3165,-3.3198,-3.3221,-3.32,-3.3242,-3.3249,-3.3267,-3.3316,-3.3338,-3.3323,-3.3416,-3.3386,-3.339,-3.3393,-3.3421,-3.3431,-3.344,-3.3324,-3.3324,-3.3323,0,0,-3.3146,-3.3159,-3.3198,-3.3213,-3.3233,-3.3236,-3.3246,-3.3263,-3.3267,-3.331,-3.3295,-3.3321,-3.3366,-3.338,-3.3393,-3.3463,-3.345,-3.3471,-3.3509,-3.3538,-3.3546,-3.3553,-3.3579,-3.3588,-3.3476,-3.3476,-3.3476,0,-3.3176,-3.3222,-3.3219,-3.3255,-3.3271,-3.3255,-3.3294,-3.3308,-3.3335,-3.3346,-3.333,-3.3387,-3.3398,-3.345,-3.3468,-3.3478,-3.3489,-3.3469,-3.3545,-3.3552,-3.3559,-3.3584,-3.3593,-3.3479,-3.3478,-3.3478,-3.3478,0,-3.3258,-3.3291,-3.3319,-3.3348,-3.3367,-3.3404,-3.3406,-3.3426,-3.3421,-3.3425,-3.3468,-3.3481,-3.3509,-3.352,-3.3515,-3.3572,-3.3563,-3.3546,-3.3517,-3.3572,-3.3595,-3.3604,-3.3482,-3.3481,-3.3481,-3.348,0,0,-3.3341,-3.3369,-3.3379,-3.3393,-3.3415,-3.3439,-3.3475,-3.3504,-3.3521,-3.354,-3.357,-3.3609,-3.3594,-3.3609,-3.3605,-3.363,-3.3686,-3.361,-3.361,-3.3625,-3.3751,-3.3765,-3.3776,-3.3677,-3.3679,-3.368,-3.375,0,-3.3407,-3.3472,-3.347,-3.353,-3.356,-3.3546,-3.3577,-3.3594,-3.3599,-3.3624,-3.3629,-3.3658,-3.3635,-3.3644,-3.3668,-3.3674,-3.3711,-3.3669,-3.3705,-3.3707,-3.3703,-3.3787,-3.3802,-3.3867,-3.3759,-3.376,-3.3761,0,-3.3492,-3.3517,-3.358,-3.3599,-3.3611,-3.364,-3.3666,-3.3691,-3.3709,-3.3711,-3.3728,-3.372,-3.3756,-3.3725,-3.3775,-3.3746,-3.3761,-3.3766,-3.3768,-3.3772,-3.3738,-3.3795,-3.3887,-3.3898,-3.3775,-3.3774,-3.3773,0,-3.3548,-3.3596,-3.3641,-3.3652,-3.3675,-3.3696,-3.3706,-3.3722,-3.374,-3.3762,-3.3773,-3.3799,-3.3813,-3.3833,-3.3832,-3.381,-3.3883,-3.3852,-3.3886,-3.3886,-3.3903,-3.3902,-3.4,-3.391,-3.391,-3.391,-3.3909,0,-3.3623,-3.3662,-3.3667,-3.3694,-3.3738,-3.3736,-3.3779,-3.3787,-3.3802,-3.383,-3.3818,-3.3844,-3.3841,-3.3867,-3.3866,-3.3908,-3.3914,-3.3917,-3.3916,-3.3919,-3.3919,-3.3929,-3.3925,-3.3912,-3.3912,-3.3911,-3.3911,0,-3.3693,-3.3697,-3.3745,-3.3763,-3.3769,-3.38,-3.3815,-3.3841,-3.3845,-3.3881,-3.3889,-3.3895,-3.3926,-3.3927,-3.3961,-3.3961,-3.4012,-3.4006,-3.4007,-3.4006,-3.404,-3.4038,-3.415,-3.4165,-3.4064,-3.4065,-3.4066,0,-3.3741,-3.3771,-3.3793,-3.3812,-3.3824,-3.3854,-3.3873,-3.3871,-3.389,-3.3914,-3.3937,-3.3967,-3.3991,-3.404,-3.4047,-3.4073,-3.4068,-3.4106,-3.4072,-3.4074,-3.4071,-3.4069,-3.4073,-3.4113,-3.4114,-3.4115,-3.4115,0,-3.3826,-3.3827,-3.3854,-3.3883,-3.3906,-3.3928,-3.3948,-3.3964,-3.3964,-3.3987,-3.4019,-3.4037,-3.4074,-3.4104,-3.413,-3.4139,-3.4128,-3.4126,-3.4135,-3.4139,-3.4139,-3.4141,-3.4026,-3.4124,-3.4123,-3.4122,-3.4122,-3.4121,-3.3887,-3.3914,-3.3935,-3.3966,-3.3981,-3.4001,-3.4027,-3.4034,-3.4062,-3.4092,-3.4089,-3.4125,-3.4142,-3.4176,-3.4188,-3.4215,-3.4202,-3.4216,-3.4219,-3.4223,-3.4228,-3.4134,-3.422,-3.4219,-3.4219,-3.4219,-3.4219,0,-3.3973,-3.3985,-3.4014,-3.4044,-3.4069,-3.4057,-3.4079,-3.41,-3.4133,-3.4151,-3.4175,-3.4212,-3.4241,-3.425,-3.4279,-3.4299,-3.4294,-3.4306,-3.4305,-3.4308,-3.4237,-3.4227,-3.4309,-3.4309,-3.4309,-3.4309,-3.4309,-3.4309,-3.402,-3.4066,-3.4069,-3.4122,-3.4134,-3.4171,-3.4184,-3.4202,-3.4217,-3.426,-3.4284,-3.4291,-3.4305,-3.4334,-3.436,-3.4362,-3.4374,-3.4388,-3.4388,-3.4322,-3.4313,-3.4304,-3.4294,-3.439,-3.439,-3.4457,-3.4458,-3.4458]}]]